www.weatherandclimate.eu
Time
(UTC), date
09 23.11
12 23.11
15 23.11
18 23.11
21 23.11
00 24.11
03 24.11
06 24.11
09 24.11
12 24.11
15 24.11
18 24.11
21 24.11
00 25.11
03 25.11
06 25.11
09 25.11
12 25.11
15 25.11
18 25.11
21 25.11
00 26.11
03 26.11
06 26.11
09 26.11
12 26.11
15 26.11
18 26.11
21 26.11
00 27.11
03 27.11
06 27.11
09 27.11
12 27.11
15 27.11
18 27.11
21 27.11
00 28.11
03 28.11
06 28.11
09 28.11
12 28.11
15 28.11
18 28.11
21 28.11
00 29.11
03 29.11
06 29.11
09 29.11
12 29.11
15 29.11
18 29.11
21 29.11
00 30.11
03 30.11
06 30.11
Wind
(dir.,m/s)
Visibility Phenomena Clouds Т
(С)
Тd
(С)
f
(%)
Тe
(С)
Тes
(С)
Comfort P
(hPa)
Po
hPa)
Тmin
(С)
Tmax
(С)
R
(mm)
R24
(mm)
S
(sm)
SE 2 20 km 9/0
[Cs]
-2.8 -13.1 45 -6 -5 warm 1031.2 995.4
SE 3 10 km 8/0
[Cs]
-3.7 -13.0 48 -8 -8 seasonable 1030.2 994.3
SE 2 10 km 3/0
[Ci fib]
-6.7 -11.6 68 -11 -11 seasonable 1030.0 993.7 -1.7
SE 1 10 km 3/0
[Ci fib]
-8.0 -12.4 71 -10 -10 seasonable 1030.0 993.6
SE 2 10 km ясно -9.0 -12.4 76 -13 -13 seasonable 1030.0 992.9
SE 1 10 km ясно -9.9 -13.5 75 -12 -12 seasonable 1028.9 992.2
SE 2 10 km 8/0
[Cs]
-10.7 -13.7 79 -15 -15 seasonable 1028.5 991.7 -10.7 7
SE 2 10 km 8/0
[Cs]
-9.9 -13.4 76 -14 -14 seasonable 1028.2 991.6 -11.1
SE 2 10 km 8/0
[Cs]
-7.3 -12.2 68 -12 -11 seasonable 1026.8 990.6
SE 3 10 km 10/0
[Cs]
-8.3 -11.7 76 -14 -14 seasonable 1027.0 990.6
SE 3 10 km 10/0
[Cs]
-7.6 -10.9 77 -13 -13 seasonable 1026.6 990.3 -7.3
SE 3 10 km 10/0
[Cs]
-7.7 -11.6 74 -13 -13 seasonable 1026.6 990.3
SE 3 10 km 10/0
[Ac trans Cs]
-8.1 -11.6 76 -14 -14 seasonable 1027.0 990.6
SE 3 10 km 10/0
[Ac trans Cs]
-8.5 -11.5 79 -14 -14 seasonable 1027.4 991.0
SE 3 10 km 10/0
[Cs]
-8.3 -11.2 80 -14 -14 seasonable 1027.8 991.4 -8.5 7
SE 2 10 km 9/0
[Ac trans Cs]
-9.6 -12.4 80 -14 -14 seasonable 1028.6 991.9
SE 2 10 km 9/0
[Ac und]
-7.3 -10.7 77 -12 -11 seasonable 1027.8 991.5
SE 4 10 km 10/0
[Ac trans]
-7.8 -12.1 71 -14 -14 seasonable 1028.3 991.9
SE 4 10 km 10/0
[Ci fib]
-9.3 -13.2 73 -16 -16 seasonable 1028.6 992.0 -6.7
SE 4 10 km 10/0
[Ci fib]
-10.4 -12.7 83 -17 -17 cool 1028.4 991.7
SE 3 10 km 10/0
[Cs]
-10.6 -13.0 82 -17 -17 cool 1028.2 991.5
SE 3 10 km 10/0
[Cs]
-10.8 -13.2 82 -17 -17 cool 1028.1 991.3
SE 4 10 km slightsnowshowers 10/6 600 м
[Cb calv Cs]
-10.6 -12.7 85 -18 -18 cool 1027.9 991.2 -11.0 0.0 7
SE 3 4000 m slightsnowshowers 10/10 600 м
[Cb calv]
-9.6 -11.8 84 -15 -15 seasonable 1027.5 990.9
SE 3 4000 m slightsnowshowers 9/9 300 м
[Cb calv]
-9.0 -12.4 76 -15 -15 seasonable 1026.9 990.4
SE 3 4000 m slightsnowshowers 10/10 300 м
[Cb calv]
-11.6 -14.4 80 -18 -18 cold 1027.9 991.1
SE 2 4000 m slightsnowshowers 10/10 300 м
[Cb calv]
-12.3 -14.8 82 -17 -17 cool 1028.4 991.4 -8.6 0.3
SE 2 10 km slightsnowshowers 10/10 600 м
[Cb calv]
-12.8 -15.1 83 -17 -17 cool 1028.4 991.3
SE 2 10 km slightsnowshowers 10/10 600 м
[Cb calv]
-13.0 -15.5 81 -18 -18 cool 1028.6 991.6
SE 1 10 km slightsnowshowers 10/10 600 м
[Cb calv]
-13.3 -15.8 81 -16 -16 cool 1028.9 991.8
E 2 10 km slightsnow 10/10 600 м
[St]
-13.4 -15.7 83 -18 -18 cold 1029.2 992.0 -13.4 0.9 8
E 1 4000 m slightsnow 10/0
[As op]
-12.1 -14.8 80 -14 -14 seasonable 1029.8 992.8
SE 1 4000 m slightsnow 10/0
[As op]
-10.0 -13.3 77 -12 -12 seasonable 1029.5 992.8
NE 1 4000 m slightsnow 10/0
[Ac trans Cs]
-10.8 -13.3 82 -13 -13 seasonable 1030.5 993.6
E 2 4000 m slightsnowshowers 8/8 600 м
[Cb cap Cs]
-11.3 -13.8 82 -16 -16 cool 1031.8 994.8 -9.5 1
0 4000 m slightsnowshowers 9/6 600 м
[Cb cap Cs]
-12.3 -14.5 84 -12 -12 seasonable 1032.8 995.7
N 1 4000 m mist 9/8 600 м
[Cb calv Cs]
-12.6 -14.9 83 -15 -15 cool 1033.7 996.5
N 1 4000 m slightsnow 10/0
[As op]
-12.7 -14.8 84 -15 -15 cool 1035.5 998.1
N 2 10 km slightsnow 10/0
[As op]
-11.9 -14.3 82 -16 -16 cool 1036.6 999.3 -13.0 0.3 8
NW 1 4000 m slightsnow 10/0
[As op]
-11.0 -13.7 80 -13 -13 seasonable 1038.5 1001.3
NW 1 10 km {snow} 4/0
[Cs]
-10.2 -13.9 74 -12 -12 seasonable 1039.9 1002.8
NW 1 10 km {snow} 10/0
[Cs]
-11.8 -14.3 82 -14 -14 cool 1042.0 1004.6
N 1 10 km 4/0
[Ci fib]
-12.7 -15.1 82 -15 -15 cool 1044.1 1006.5 -10.0 0.2
NW 1 10 km 4/0
[Ci fib]
-14.0 -16.3 83 -16 -16 cool 1045.8 1007.9
W 2 10 km {snow} 3/0
[Ci fib]
-14.8 -17.2 82 -20 -20 very cold 1047.3 1009.2
NW 1 10 km {snow} 3/0
[Ci fib]
-15.4 -17.8 82 -18 -18 very cold 1048.6 1010.4
W 1 10 km 3/0
[Ci fib]
-16.4 -18.9 81 -19 -19 very cold 1050.1 1011.7 -16.4 0.0 8
0 10 km 4/0
[Ci fib]
-15.1 -18.4 76 -15 -15 cold 1050.8 1012.6 -17.1
NW 1 10 km 4/0
[Cs]
-11.2 -15.5 70 -13 -13 cool 1050.2 1012.6
W 1
{11}
50 km 8/8 600 м
[Sc]
-11.7 -14.4 80 -14 -14 cool 1050.9 1013.2
W 1 10 km ясно -12.8 -15.1 83 -15 -15 cold 1052.1 1014.2 -10.4
SW 1 10 km 3/0
[Ci fib]
-13.4 -15.7 83 -16 -16 cold 1052.1 1014.1
SW 1 10 km ясно -13.9 -16.2 83 -16 -16 cold 1052.5 1014.4
SW 1 10 km ясно -14.1 -16.5 82 -17 -17 seasonable 1052.6 1014.4
SW 2 10 km ясно -14.2 -16.6 82 -19 -19 cool 1052.9 1014.7 -14.4 8
SW 1 10 km ясно -12.2 -15.3 78 -14 -14 seasonable 1053.5 1015.6 -14.5
Weather station location Екатеринбург (Sverdlovsk region, Russia): latitude 56.83 longitude 60.63 Height above sea level 281 m.
The archive shows weather in в Екатеринбурге for the last week. For the whole month and for the previous months, starting from January 2011, you can obtain archived data by selecting the date range of interest from the drop-down list and clicking the "Find!".
*Decide who are you:
Attention! The time in the tables is UTC. To get the local time, you must add an amendment that is equal to 5 h.
See also the weather archive in nearby cities and at nearby weather stations:
Partners of our site:
Column explanations:
  • Wind - indicated wind speed in m/s - average for 10 minutes, gusts in time and between periods (in brackets) and the direction from which the wind blows: N - North, NE - North-East, E - East, SE - South-East , S - South, SW - South-West, W - West, NW - North-West.
  • Visibility - horizontal visibility range in meters or kilometers. When visibility is from 1 to 10 km in the absence of precipitation, haze is usually observed, and when visibility is reduced to 1 km or less, fog is observed. In dry weather, visibility may be reduced by smoke, dust, or haze.
  • Phenomena - atmospheric phenomena observed during the period or in the last hour before the period are indicated; curly brackets indicate phenomena observed between periods (1-3 hours before the period); square brackets indicate hail or ice deposits with their diameter in mm.
  • Clouds - are through slash total and lower clouds in points, and the height of the lower border of the cloud in meters; square brackets contain cloud forms: Ci - Cirrus, Cs - Cirrostratus, Cc - Cirrocumulus, Ac - Altocumulus, As - Altostratus, Sc - Stratocumulus, Ns - Nimbostratus, Cu - Cumulus, Cb - Cumulonimbus. For more information about cloud classification, see the cloud Atlas (PDF).
  • T - Air temperature - temperature measured at a height of 2 m above the ground.
  • Td - Dew point temperature - the temperature is lowered to that contained in the air, the water vapor reaches saturation.
  • f - Relative humidity measured at a height of 2 m above the ground.
  • Te - Effective temperature is the temperature that a seasonally dressed person feels in the shade. Characteristic of stuffy weather. The calculation takes into account the influence of air humidity and wind speed on a person’s heat.
  • Tes - Effective sun temperature - the temperature that a person feels, adjusted for solar heating. Characteristics of the sultry weather. Depends on the height of the sun above the horizon, cloud cover and wind speed. At night, in cloudy weather, as well as in winds of 12 m/s or more, the correction is zero.
  • P - Atmospheric pressure - atmospheric pressure reduced to sea level.
  • Po - Atmospheric pressure - atmospheric pressure measured at the station level.
  • Tmin - Minimum temperature - minimum air temperature at a height of 2 m above the ground.
  • Tmax - Maximum temperature - maximum air temperature at a height of 2 m above the ground.
  • R - Precipitation - The amount of precipitation over a period of time, mm. When you hover over the number, the time period for which the specified amount of precipitation has fallen.
  • R24 - Количество осадков - The amount of precipitation in 24 hours, mm.
  • S - Snow cover - The height of the snow cover. When you hover the mouse over the number - the state of the snow cover and the degree of coverage in points.